Weather History for KSJT - January, 2013

Change the Weather History Date:

Tuesday, January 1, 2013

  Actual Average Record
Temperature  
Mean Temperature 43 °F 46 °F  
Max Temperature 50 °F 59 °F 83 °F (1910)
Min Temperature 35 °F 33 °F 11 °F (1979)
Degree Days  
Heating Degree Days 22 19  
Month to date heating degree days 22 19  
Since 1 July heating degree days 747 986  
Cooling Degree Days 0 0  
Month to date cooling degree days 0 0  
Year to date cooling degree days 0 0  
Moisture  
Dew Point 31 °F    
Average Humidity 66    
Maximum Humidity 89    
Minimum Humidity 42    
Precipitation  
Precipitation 0.00 in 0.03 in 0.71 in (1944)
Month to date precipitation 0.00 0.03  
Year to date precipitation 0.00 0.03  
Snow  
Snow 0.00 in 0.00 in 5.50 in (1947)
Month to date snowfall 0.0 0.0  
Since 1 July snowfall T 0.6  
Snow Depth 0.00 in    
Sea Level Pressure  
Sea Level Pressure 30.19 in    
Wind  
Wind Speed 8 mph (NNE)    
Max Wind Speed 14 mph    
Max Gust Speed 17 mph    
Visibility 10 miles    
Events      
T = Trace of Precipitation, MM = Missing Value Source: NWS Daily Summary

Daily Weather History Graph

Daily Weather History Graph

Search for Another Location

Airport or City:

Trip Planner

Search our weather history database for the weather conditions in past years. The results will help you decide how hot, cold, wet, or windy it might be!

Date:

Astronomy

Jan. 01, 2013 Rise Set
Actual Time 7:41 AM CST 5:50 PM CST
Civil Twilight 7:14 AM CST 6:17 PM CST
Nautical Twilight 6:44 AM CST 6:47 PM CST
Astronomical Twilight 6:14 AM CST 7:17 PM CST
Moon 10:04 PM CST (1/1) 10:10 AM CST (1/1)
Length of Visible Light 11h 02m
Length of Day
10h 09m
Waning Gibbous, 83% of the Moon is Illuminated
Jan 1
Waning Gibbous
Jan 4
Last Quarter
Jan 11
New
Jan 18
First Quarter
Jan 26
Full

Hourly Weather History & Observations

Time (CST) Temp. Windchill Dew Point Humidity Pressure Visibility Wind Dir Wind Speed Gust Speed Precip Events Conditions
12:51 AM 46.0 °F 42.5 °F 33.1 °F 61% 30.03 in 10.0 mi West 6.9 mph - N/A   Overcast
1:51 AM 46.0 °F 43.9 °F 34.0 °F 63% 30.03 in 10.0 mi West 4.6 mph - N/A   Overcast
2:51 AM 46.9 °F - 34.0 °F 61% 30.06 in 10.0 mi ENE 4.6 mph - N/A   Overcast
3:51 AM 43.0 °F 40.3 °F 39.9 °F 89% 30.06 in 10.0 mi East 4.6 mph - N/A   Mostly Cloudy
4:51 AM 43.0 °F 40.3 °F 39.9 °F 89% 30.08 in 7.0 mi East 4.6 mph - N/A   Overcast
5:51 AM 43.0 °F 37.7 °F 39.9 °F 89% 30.11 in 6.0 mi ENE 9.2 mph - N/A   Overcast
6:40 AM 41.0 °F 35.8 °F 37.4 °F 87% 30.13 in 8.0 mi NE 8.1 mph - N/A   Mostly Cloudy
6:51 AM 41.0 °F 35.2 °F 36.0 °F 82% 30.15 in 9.0 mi NE 9.2 mph - N/A   Overcast
7:51 AM 41.0 °F 35.2 °F 36.0 °F 82% 30.18 in 10.0 mi NNE 9.2 mph - N/A   Overcast
8:51 AM 39.0 °F 31.0 °F 33.1 °F 79% 30.23 in 10.0 mi NNW 13.8 mph - N/A   Overcast
9:51 AM 39.0 °F 32.8 °F 30.9 °F 73% 30.25 in 10.0 mi North 9.2 mph - N/A   Overcast
10:39 AM 41.0 °F 38.0 °F 30.2 °F 65% 30.25 in 10.0 mi North 4.6 mph - N/A   Partly Cloudy
10:51 AM 42.1 °F 38.4 °F 30.9 °F 65% 30.26 in 10.0 mi North 5.8 mph - N/A   Partly Cloudy
11:51 AM 45.0 °F 40.1 °F 30.0 °F 56% 30.24 in 10.0 mi North 9.2 mph - N/A   Clear
12:51 PM 46.0 °F 40.6 °F 28.9 °F 51% 30.20 in 10.0 mi NNW 11.5 mph - N/A   Clear
1:51 PM 48.0 °F - 28.9 °F 48% 30.18 in 10.0 mi NNE 6.9 mph - N/A   Clear
2:51 PM 48.9 °F - 28.0 °F 44% 30.19 in 10.0 mi NNW 5.8 mph - N/A   Clear
3:51 PM 48.9 °F - 27.0 °F 43% 30.18 in 10.0 mi North 8.1 mph - N/A   Clear
4:51 PM 46.9 °F - 27.0 °F 46% 30.20 in 10.0 mi NNW 8.1 mph - N/A   Clear
5:51 PM 45.0 °F 41.2 °F 28.0 °F 52% 30.20 in 10.0 mi NNW 6.9 mph - N/A   Clear
6:51 PM 42.1 °F 37.1 °F 30.0 °F 62% 30.22 in 10.0 mi ENE 8.1 mph - N/A   Clear
7:51 PM 39.9 °F 36.7 °F 28.9 °F 65% 30.24 in 10.0 mi ENE 4.6 mph - N/A   Clear
8:51 PM 39.0 °F 34.8 °F 28.0 °F 65% 30.27 in 10.0 mi ENE 5.8 mph - N/A   Clear
9:51 PM 37.0 °F 31.6 °F 26.1 °F 65% 30.29 in 10.0 mi ENE 6.9 mph - N/A   Clear
10:51 PM 36.0 °F 29.6 °F 25.0 °F 64% 30.30 in 10.0 mi ENE 8.1 mph - N/A   Clear
11:51 PM 35.1 °F 27.4 °F 24.1 °F 64% 30.29 in 10.0 mi NE 10.4 mph - N/A   Clear